Back to catalog

ICEYE-X39

AliveScienceSSO
NORAD 60546·PAYLOAD·🇧🇷 Brazil

Launched Aug 16, 2024 from Vandenberg Space Force Base

Loading…

Next Passes (next 24 hours)

TLE

FreshSource: Space-Track

Epoch: Sep 14, 2026, 11:04 UTC

1 60546U 24149CG  26257.46111749  .00001617  00000-0  13477-3 0  9996
2 60546  97.6729 333.3155 0009179 190.4400 169.6634 14.99989927113502

Track ICEYE-X39 in real time with AllMySat

Download on the App Store